Skip Page Navigation
NASA JPL Caltech
NASA Logo - Jet Propulsion Laboratory + View the NASA Portal
+ Center for Near-Earth Object Studies
JPL Home Earth Solar System Stars & Galaxies Technology
JPL Solar System Dynamics
BODIES ORBITS EPHEMERIDES TOOLS PHYSICAL DATA DISCOVERY FAQ SITE MAP
IMPORTANT: The SSD Announcement email list is now available. Major changes are coming in the near future, including possible hostname and/or URL changes. To be notified of such changes, subscribe to this email list.

Please visit this page for more details.


JPL Small-Body Database Browser
Search: [ help ]  
59052 (1998 TV34)
Classification: Main-belt Asteroid          SPK-ID: 2059052
Ephemeris | Orbit Diagram | Orbital Elements | Mission Design | Physical Parameters | Discovery Circumstances ]

[ show orbit diagram ]
Orbital Elements at Epoch 2459000.5 (2020-May-31.0) TDB
Reference: JPL 17 (heliocentric ecliptic J2000)
 Element Value Uncertainty (1-sigma)   Units 
e .111916771926664 3.9731e-08  
a 2.330774345732645 8.0831e-09 au
q 2.069921604868765 9.4412e-08 au
i 3.678887723539694 4.4068e-06 deg
node 57.08574076947381 8.0603e-05 deg
peri 356.5249674747889 8.4307e-05 deg
M 7.585477228883507 2.4754e-05 deg
tp 2458973.113963731594
(2020-May-03.61396373)
8.9326e-05 TDB
period 1299.716914195685
3.56
6.7611e-06
1.851e-08
d
yr
n .2769833923587753 1.4409e-09 deg/d
Q 2.591627086596525 8.9877e-09 au
  Orbit Determination Parameters
   # obs. used (total)      662  
   data-arc span      7771 days (21.28 yr)  
   first obs. used      1998-10-14  
   last obs. used      2020-01-23  
   planetary ephem.      DE431  
   SB-pert. ephem.      SB431-N16  
   condition code      0  
   norm. resid. RMS      .55074  
   source      ORB  
   producer      Otto Matic  
   solution date      2020-Feb-23 12:41:55  

Additional Information
 Earth MOID = 1.08112 au 
 Jupiter MOID = 2.71001 au 
 T_jup = 3.560 
[ show covariance matrix ]

Ephemeris | Orbit Diagram | Orbital Elements | Mission Design | Physical Parameters | Discovery Circumstances ]

Physical Parameter Table
Parameter Symbol Value Units Sigma Reference Notes
absolute magnitude H 16.0   n/a MPO250746  
diameter diameter 1.793 km 0.346 urn:nasa:pds:neowise_diameters_albedos::2.0[mainbelt] (http://adsabs.harvard.edu/abs/2011ApJ...741...68M)  
geometric albedo albedo 0.240   0.077 urn:nasa:pds:neowise_diameters_albedos::2.0[mainbelt] (http://adsabs.harvard.edu/abs/2011ApJ...741...68M)  

59052 (1998 TV34)          Discovered 1998-Oct-14 by LONEOS at Anderson Mesa
Reference: 20030614/Numbers.arcLast Updated: 2004-04-19
Ephemeris | Orbit Diagram | Orbital Elements | Mission Design | Physical Parameters | Discovery Circumstances ]
ABOUT SSD CREDITS/AWARDS PRIVACY/COPYRIGHT GLOSSARY LINKS
FirstGov 2020-Mar-29 10:28 UT
(server date/time)  
NASA Home Page
Site Manager:   Ryan S. Park
Webmaster  Alan B. Chamberlin